{"data":{"norad_id":56995,"intl_designator":"2023-084BX","name":"AAC-HSI-SAT2","alt_names":[],"object_type":"PAYLOAD","status":"ACTIVE","operator":null,"country":"UK","launch_date":"2023-06-12","launch_site_code":"AFWTR","launch_vehicle":null,"mission":null,"orbit_class":"UNKNOWN","rcs_meters":null,"size_class":null,"mass_kg":null,"dimensions":null,"purposes":[],"wikipedia_slug":null,"has_3d_model":false,"image_url":null,"decayed_at":null,"tle_current":{"epoch":"2026-09-21T22:31:18.333696Z","epoch_age_seconds":75728,"freshness":"FRESH","line1":"1 56995U 23084BX  26264.93840664  .00002243  00000+0  10450-3 0  9994","line2":"2 56995  97.8381  58.9377 0011390 204.4360 155.6336 15.20985007181044","mean_motion":15.20985007,"eccentricity":0.001139,"inclination_deg":97.8381,"raan_deg":58.9377,"arg_perigee_deg":204.436,"mean_anomaly_deg":155.6336,"bstar":0.0001045,"rev_number":18104,"period_min":94.675489460627,"perigee_km":495.03073370806,"apogee_km":510.70566355054,"semimajor_km":6881.0051986293,"source":"CELESTRAK","updated_at":"2026-09-22T09:00:25.996705Z"}}}